Location: Flint Hill Observatory
(31.1875°N, 100.5222°W)
Time: 11:15:24
(UTC-05:00)

Daily predictions for brighter satellites

Satellite Brightness Start Highest point End
(mag) Time Altitude Azimuth Time Altitude Azimuth Time Altitude Azimuth
Intelsat 5-3 Rocket 4.3 19:58:18 10° WSW 20:01:33 27° S 20:07:54 10° ESE
Cosmos 1842 3.4 20:01:20 10° N 20:05:18 83° W 20:09:13 10° S
H-2A R/B 3.9 20:08:05 10° SE 20:10:59 22° ENE 20:13:54 10° NNE
EXPRESS MD2 3.6 20:08:46 10° NNW 20:11:22 39° NE 20:15:47 10° ESE
Cosmos 1943 Rocket 3.0 20:06:42 10° N 20:11:34 30° ENE 20:16:27 10° SE
Cosmos 1825 Rocket 4.0 20:09:43 10° N 20:13:53 41° E 20:18:04 10° SSE
Cosmos 1184 Rocket 2.8 20:10:57 10° N 20:14:19 62° E 20:17:39 10° SSE
Nadezhda 1 Rocket 4.3 20:10:11 10° N 20:16:33 76° W 20:22:49 10° S
OAO 3 Copernicus 4.3 20:12:42 10° WSW 20:17:44 72° SSE 20:22:40 11° ENE
Cosmos 2181 Rocket 4.3 20:12:11 10° N 20:18:00 42° E 20:23:43 10° SSE
GPS 2-04 Rocket1 2.9 20:14:39 10° WNW 20:18:56 77° NNE 20:22:45 13° ESE
SWIFT 4.3 20:17:31 10° SW 20:20:31 19° S 20:23:33 10° SE
COSMOS 2406 4.2 20:21:58 10° SSE 20:26:22 24° E 20:30:49 10° NE
Cosmos 1814 Rocket 3.9 20:23:07 10° S 20:28:16 70° ESE 20:33:24 10° NNE
Tiangong 2 1.1 20:25:12 10° NW 20:28:24 68° NNE 20:30:36 18° ESE
Cosmos 304 Rocket 4.3 20:24:21 10° SSE 20:28:39 34° E 20:32:59 10° NE
Cosmos 1898 Rocket 3.7 20:24:03 10° N 20:29:02 46° ENE 20:33:58 10° SE
USA 81 4.4 20:27:50 10° NNE 20:32:52 43° E 20:37:51 10° SSE
Cosmos 2074 Rocket 4.4 20:27:45 10° SSE 20:33:26 39° E 20:39:07 10° NNE
Cosmos 1707 3.2 20:31:00 10° NNE 20:34:41 38° E 20:38:21 10° SSE
Cosmos 389 Rocket 3.4 20:37:31 10° SSW 20:40:58 51° W 20:44:24 10° N
Cosmos 1340 Rocket 2.8 20:38:24 10° N 20:42:28 66° E 20:46:30 10° SSE
FENGYUN 3A 3.9 20:38:11 10° S 20:43:31 71° W 20:48:52 10° NNW
SL-08 ROCKET BODY 4.2 20:37:44 10° S 20:43:33 73° E 20:49:25 10° N
Cosmos 2150 Rocket 4.5 20:39:29 10° N 20:44:32 41° ENE 20:48:15 17° SE
Cosmos 990 Rocket 4.4 20:40:05 10° N 20:44:56 40° ENE 20:48:07 19° SE
Cosmos 1758 Rocket 3.5 20:40:31 10° N 20:45:00 74° E 20:49:29 10° S
ALOS 2.9 20:40:29 10° S 20:45:03 58° W 20:49:39 10° NNW
Cosmos 2369 Rocket 2.5 20:41:08 10° NNW 20:46:45 71° WSW 20:52:18 10° S
Envisat 4.1 20:45:42 22° E 20:46:47 23° ENE 20:50:44 10° NNE
Cosmos 1726 Rocket 3.9 20:43:05 10° SSW 20:47:26 68° W 20:51:46 10° N
FREGAT/IRIS 2.8 20:44:53 10° S 20:47:54 70° W 20:50:55 10° NNW
Geosat 4.4 20:43:31 10° SSE 20:48:29 67° WSW 20:53:30 10° NNW
Cosmos 1356 Rocket 4.4 20:45:06 10° NNE 20:48:48 27° ENE 20:49:18 27° E
NOSS 2 (A) 4.4 20:47:27 10° NNW 20:49:58 76° WSW 20:51:29 25° SSE
OAO 2 Rocket 3.7 20:46:07 10° WNW 20:51:23 62° SSW 20:54:34 23° SE
Lacrosse 5 2.0 20:47:29 10° NW 20:52:33 76° SW 20:56:37 16° SSE
Resurs 01 Rocket 2.3 20:54:17 30° E 20:55:16 33° ENE 20:59:14 10° N
Yuri Rocket 3.8 20:54:58 10° SW 20:58:51 32° SSE 20:59:38 30° SE
CZ-2D R/B 3.3 21:01:53 44° ESE 21:02:34 50° ENE 21:06:15 10° N
BREEZE-M (TANK) 3.8 20:52:15 10° NW 21:03:38 46° NNE 21:05:13 32° ENE
Cosmos 2263 4.4 20:59:38 10° NNW 21:05:14 70° WSW 21:10:51 10° S
SJ-6B 3.1 21:02:08 10° S 21:06:10 69° WSW 21:10:10 10° NNW
Cosmos 858 Rocket 4.4 21:00:55 10° NNW 21:06:12 88° WSW 21:10:52 13° SSE
Cosmos 2184 Rocket 3.9 21:00:16 10° S 21:06:29 76° E 21:12:49 10° N
Cosmos 2298 Rocket 3.9 21:02:56 10° NNW 21:08:17 83° ENE 21:12:10 19° SSE
GP-B 4.2 21:06:43 10° NNE 21:09:18 28° NE 21:09:18 28° NE
Cosmos 841 Rocket 3.7 21:06:25 10° SSW 21:11:32 69° WNW 21:16:39 10° N
Cosmos 1378 3.4 21:08:56 10° NNW 21:12:41 66° W 21:15:30 17° S
Cosmos 1610 Rocket 4.5 21:09:42 10° S 21:15:54 61° E 21:22:11 10° NNE
Cosmos 1937 Rocket 3.5 21:11:19 10° NNW 21:16:38 83° WSW 21:20:08 22° S
HJ-1C 4.5 21:15:04 16° SSW 21:17:29 43° W 21:20:42 10° NNW
Meteor 1-24 Rocket 3.7 21:17:55 10° N 21:23:53 70° E 21:26:14 37° SSE
Milstar 3 Cent rocket 2.4 21:21:21 10° SW 21:25:52 41° SSE 21:25:52 41° SSE
USA 229 DEB 3.9 21:23:00 10° NNW 21:30:15 78° WSW 21:34:28 28° SSE
USA 229 3.9 21:23:06 10° NNW 21:30:20 79° WSW 21:34:30 29° SSE
BREEZE-M DEB 3.2 21:26:40 10° NW 21:31:29 54° NNW 21:31:29 54° NNW
NOSS 3-1 (A) 4.4 21:27:27 10° NNW 21:34:56 46° NE 21:36:22 42° E
Cosmos 540 Rocket 3.6 21:38:28 10° SSW 21:43:32 72° WNW 21:48:38 10° NNE
NOSS 3-1 (C) 4.0 21:38:01 10° NNW 21:45:54 70° ENE 21:47:50 54° ESE
Meteor 2-8 Rocket 4.3 21:40:10 10° N 21:46:19 86° E 21:47:22 63° SSE
MOS 1-B Rocket 4.0 21:45:43 40° S 21:48:18 85° WSW 21:54:15 10° NNW
Meteor 2-19 Rocket 4.5 21:46:31 10° S 21:52:33 74° W 21:58:37 10° N
Spot 2 Rocket 3.8 21:53:04 60° SW 21:53:28 63° WSW 21:58:29 10° NNW
Cosmos 1943 Rocket 4.0 21:50:28 10° NW 21:55:09 28° WSW 21:59:32 11° SSW
Cosmos 2154 Rocket 4.4 22:06:17 17° SSW 22:11:07 58° W 22:17:16 10° N
Resurs 01 Rocket 4.3 22:31:52 16° W 22:31:52 16° W 22:34:30 10° WNW
FALCON 9 R/B 4.2 23:00:08 10° WNW 23:01:58 29° WNW 23:01:58 29° WNW
